カタログに戻る

FENGYUN 1C DEB

運用中SSO
NORAD 33741·DEBRIS·🇨🇳 China

打ち上げ May 10, 1999 から Taiyuan Satellite Launch Center

Loading…

次のパス (今後24時間)

TLE

最新Source: Space-Track

元期: Sep 11, 2026, 22:41 UTC

1 33741U 99025DJE 26254.94577227  .00002473  00000-0  12792-2 0  9994
2 33741  98.5558 160.8749 0128387  30.4998 330.3562 14.11634480607150

AllMySatでFENGYUN 1C DEBをリアルタイム追跡

Download on the App Store